Regional Weather Roundup
Issued by NWS Kansas City/Pleasant Hill, MO

Home | Current Version | Previous Version | Graphics & Text | Print | Product List | Glossary Off
Versions: 1 2 3 4 5 6 7 8 9 10 11 12 13 14 15 16 17 18 19 20 21 22 23 24 25 26 27 28 29 30 31 32 33 34 35 36 37 38 39 40 41 42 43 44 45 46 47 48 49 50

000
ASUS43 KEAX 230310
RWREAX

WEATHER ROUNDUP FOR EASTERN KANSAS AND NORTHWEST MISSOURI
NATIONAL WEATHER SERVICE KANSAS CITY/PLEASANT HILL MO
900 PM CST SAT NOV 22 2014

KSZ040-057-103>105-MOZ028-029-037-043-230400-
...KANSAS CITY METROPOLITAN AREA...

CITY           SKY/WX    TMP DP  RH WIND       PRES   REMARKS
K.C. INTL      CLOUDY    56  51  84 S23G29    29.72F
K.C. DOWNTOWN  CLOUDY    58  51  78 S16G23    29.74F
LEES SUMMIT    NOT AVBL
OLATHE - IXD   CLOUDY    54  51  90 S14G21    29.74F
OLATHE - OJC   CLOUDY    55  51  86 S15G26    29.73F
LAWRENCE       CLOUDY    56  50  80 S13       29.73S

$$

MOZ001>008-011>017-020>025-030>033-038>040-044>046-053-054-230400-
...NORTHERN AND CENTRAL MISSOURI...

CITY           SKY/WX    TMP DP  RH WIND       PRES   REMARKS
ST. JOSEPH     CLOUDY    55  51  86 S15       29.71R
MOSBY          CLOUDY    55  50  82 S14       29.74F
WARRENSBURG    PTCLDY    52  48  87 SE10      29.77F
WHITEMAN AFB   PTCLDY    52  50  92 S14       29.78F
CLINTON        CLEAR     54  52  94 S10       29.81S
SEDALIA        PTCLDY    53  50  89 S15       29.81F
WARSAW         NOT AVBL
MARSHALL       PTCLDY    55  52  88 S12       29.79F
CHILLICOTHE      N/A     56  50  80 S13       29.74F
MOBERLY        PTCLDY    54  48  82 S12G20    29.80F
KIRKSVILLE     PTCLDY    52  50  93 S13       29.77F

$$

MOZ041-047>049-056>058-063>065-088>090-097-230400-
...EASTERN AND SOUTHERN MISSOURI...

CITY           SKY/WX    TMP DP  RH WIND       PRES   REMARKS
ST. LOUIS INTL LGT RAIN  55  50  83 S8        29.91S
SPIRIT OF STL  CLOUDY    54  51  90 S7        29.89F
COLUMBIA       PTCLDY    53  49  86 S16       29.84S
JEFFERSON CITY CLOUDY    54  49  83 SE8       29.86S
ROLLA          CLOUDY    52  48  86 S14       29.87S
LEBANON        CLOUDY    54  50  87 S17       29.85F
OSAGE BEACH    CLOUDY    54  48  82 S9G18     29.85F
SPRINGFIELD    MOCLDY    53  51  93 S20       29.83F
BRANSON        CLOUDY    54  50  87 SE15      29.88F
NEVADA         PTCLDY    50  48  93 SE6       29.79F
JOPLIN         PTCLDY    53  51  93 S8        29.80F
WEST PLAINS    CLOUDY    52  48  86 S13       29.93F

$$

IAZ060-094-KSZ022-034>040-054-083-096-NEZ052-066-093-230400-
...KANSAS...SOUTHEAST NEBRASKA AND IOWA...

CITY           SKY/WX    TMP DP  RH WIND       PRES   REMARKS
TOPEKA         CLOUDY    57  53  86 S15G28    29.70F
MANHATTAN      CLOUDY    57  53  86 S17G25    29.65S
EMPORIA        CLOUDY    54  52  93 S22G31    29.70F
CHANUTE        CLOUDY    56  52  86 S18       29.76F
WICHITA        CLOUDY    54  51  90 S17       29.69F
OMAHA          CLOUDY    55  53  93 S10       29.60S
LINCOLN        CLOUDY    58  52  80 S16       29.59F
FALLS CITY     CLOUDY    55  51  86 S14       29.66S
LAMONI         MOCLDY    51  49  92 S14       29.70F
DES MOINES     PTCLDY    54  50  86 S14       29.67S

$$




USA.gov is the U.S. government's official web portal to all federal, state and local government web resources and services.